Back to catalog

ATLAS 5 CENTAUR DEB

AliveHEO
NORAD 46668·DEBRIS·🇺🇸 United States

Launched Oct 17, 2018 from Cape Canaveral Space Force Station

Loading…

Next Passes (next 24 hours)

TLE

FreshSource: Space-Track

Epoch: Sep 14, 2026, 10:41 UTC

1 46668U 18079CW  26257.44568377 -.00000175  00000-0  00000-0 0  9995
2 46668  13.3655  25.6104 4657913 336.8796   7.5428  1.83703400 39813

Track ATLAS 5 CENTAUR DEB in real time with AllMySat

Download on the App Store